This is the latest recevied weather packets stored in our database for station/object ON7EQ-13. If no packets are shown the sender has not sent any weather packets the latest 10 day(s).
| Time | Temp. | Humidity | Pressure | Rain* | Wind** | Luminosity | Snow |
|---|---|---|---|---|---|---|---|
| 1777913049 | 20.56° C | 78% | 1010.8 hPa | - | - | - | - |
| 1777912449 | 20.56° C | 77% | 1010.9 hPa | - | - | - | - |
| 1777911849 | 21.11° C | 77% | 1010.9 hPa | - | - | - | - |
| 1777911249 | 21.11° C | 75% | 1010.9 hPa | - | - | - | - |
| 1777910649 | 21.67° C | 74% | 1010.9 hPa | - | - | - | - |
| 1777910049 | 21.67° C | 73% | 1010.9 hPa | - | - | - | - |
| 1777909449 | 22.22° C | 72% | 1011.1 hPa | - | - | - | - |
| 1777908849 | 22.78° C | 70% | 1011.1 hPa | - | - | - | - |
| 1777908249 | 23.33° C | 70% | 1011.1 hPa | - | - | - | - |
| 1777907649 | 23.89° C | 70% | 1011.1 hPa | - | - | - | - |
| 1777907049 | 22.78° C | 72% | 1011.1 hPa | - | - | - | - |
| 1777906449 | 22.78° C | 75% | 1011.2 hPa | - | - | - | - |
| 1777905849 | 22.22° C | 75% | 1011.2 hPa | - | - | - | - |
| 1777905249 | 22.22° C | 75% | 1011.3 hPa | - | - | - | - |
| 1777904049 | 22.22° C | 73% | 1011.4 hPa | - | - | - | - |
| 1777903450 | 22.78° C | 72% | 1011.5 hPa | - | - | - | - |
| 1777902850 | 22.78° C | 71% | 1011.6 hPa | - | - | - | - |
| 1777902249 | 23.33° C | 66% | 1011.7 hPa | - | - | - | - |
| 1777901650 | 22.78° C | 68% | 1011.7 hPa | - | - | - | - |
| 1777901049 | 23.33° C | 67% | 1011.8 hPa | - | - | - | - |
| 1777900449 | 22.78° C | 67% | 1011.8 hPa | - | - | - | - |
| 1777899849 | 22.78° C | 68% | 1012 hPa | - | - | - | - |
| 1777899249 | 22.78° C | 68% | 1011.9 hPa | - | - | - | - |
| 1777898649 | 22.78° C | 71% | 1012 hPa | - | - | - | - |
| 1777898049 | 22.22° C | 71% | 1012.1 hPa | - | - | - | - |
* Rain since midnight (hover to see other rain measurements)
** Current wind speed in m/s (hover to see current wind gust speed)